QPF
0.17 0.16 0.22 0.20 0.13 0.11 0.12 0.12 0.11 0.10 0.09 0.08 0.08 0.10 0.10 0.09 0.09 0.09 0.11 0.10 0.11 0.14 0.17 0.18 0.18 0.18 0.16 0.15 0.15 0.14 0.13 0.11 0.09 0.09 0.07 0.05 0.05 0.05 0.04 0.04 0.05 0.08 0.06
0.16 0.17 0.19 0.19 0.14 0.12 0.14 0.17 0.13 0.10 0.09 0.09 0.10 0.11 0.13 0.12 0.10 0.10 0.08 0.10 0.13 0.15 0.20 0.18 0.18 0.19 0.17 0.16 0.16 0.15 0.13 0.09 0.09 0.08 0.06 0.04 0.04 0.05 0.06 0.06 0.08 0.08 0.05
0.15 0.19 0.16 0.17 0.16 0.13 0.12 0.15 0.16 0.15 0.13 0.13 0.13 0.14 0.16 0.15 0.14 0.13 0.13 0.16 0.21 0.23 0.24 0.22 0.23 0.18 0.15 0.13 0.12 0.12 0.10 0.09 0.08 0.07 0.09 0.07 0.05 0.06 0.07 0.07 0.06 0.04 0.04
0.11 0.19 0.21 0.21 0.18 0.14 0.11 0.11 0.13 0.15 0.19 0.18 0.18 0.17 0.16 0.16 0.17 0.16 0.16 0.20 0.24 0.25 0.24 0.23 0.22 0.18 0.15 0.13 0.10 0.09 0.08 0.10 0.09 0.08 0.11 0.10 0.07 0.07 0.06 0.06 0.05 0.02 0.03
0.13 0.26 0.32 0.28 0.18 0.11 0.10 0.12 0.15 0.17 0.18 0.18 0.18 0.16 0.14 0.12 0.13 0.15 0.17 0.17 0.17 0.19 0.21 0.22 0.20 0.18 0.14 0.12 0.11 0.10 0.09 0.11 0.10 0.09 0.11 0.11 0.11 0.09 0.06 0.04 0.04 0.02 0.03
0.11 0.22 0.27 0.26 0.21 0.16 0.14 0.13 0.15 0.16 0.16 0.18 0.20 0.19 0.15 0.11 0.10 0.11 0.11 0.11 0.11 0.14 0.13 0.14 0.18 0.20 0.16 0.14 0.12 0.11 0.14 0.11 0.10 0.11 0.13 0.13 0.11 0.06 0.05 0.04 0.03 0.03 0.03
0.11 0.16 0.18 0.20 0.20 0.18 0.16 0.14 0.12 0.13 0.13 0.13 0.14 0.16 0.13 0.10 0.10 0.10 0.08 0.07 0.08 0.10 0.11 0.13 0.13 0.15 0.17 0.15 0.13 0.13 0.16 0.16 0.13 0.11 0.13 0.15 0.11 0.05 0.03 0.03 0.03 0.04 0.03
0.09 0.15 0.18 0.15 0.15 0.14 0.12 0.11 0.11 0.11 0.10 0.09 0.08 0.11 0.12 0.11 0.12 0.10 0.11 0.11 0.10 0.09 0.10 0.10 0.12 0.12 0.15 0.16 0.15 0.15 0.12 0.10 0.09 0.09 0.10 0.10 0.08 0.05 0.04 0.04 0.03 0.03 0.03
0.07 0.12 0.19 0.16 0.13 0.10 0.08 0.08 0.10 0.11 0.10 0.09 0.08 0.09 0.11 0.12 0.11 0.11 0.12 0.15 0.14 0.12 0.11 0.13 0.17 0.13 0.14 0.17 0.16 0.11 0.09 0.08 0.07 0.07 0.06 0.06 0.06 0.04 0.03 0.03 0.03 0.03 0.03
0.07 0.09 0.12 0.12 0.10 0.09 0.09 0.09 0.10 0.10 0.09 0.10 0.10 0.11 0.10 0.09 0.10 0.11 0.12 0.15 0.15 0.15 0.13 0.19 0.20 0.16 0.18 0.19 0.14 0.08 0.06 0.05 0.04 0.05 0.06 0.04 0.04 0.04 0.03 0.03 0.03 0.03 0.03
0.06 0.08 0.10 0.10 0.09 0.08 0.09 0.10 0.12 0.09 0.09 0.10 0.10 0.09 0.09 0.11 0.11 0.11 0.14 0.16 0.17 0.19 0.20 0.25 0.23 0.21 0.19 0.15 0.10 0.05 0.04 0.03 0.04 0.04 0.03 0.03 0.03 0.03 0.03 0.03 0.03 0.03 0.04
0.04 0.05 0.07 0.08 0.08 0.08 0.08 0.08 0.10 0.07 0.08 0.08 0.11 0.09 0.08 0.10 0.14 0.15 0.18 0.17 0.20 0.24 0.24 0.23 0.17 0.13 0.09 0.08 0.06 0.04 0.02 0.01 0.03 0.03 0.03 0.03 0.03 0.03 0.03 0.03 0.02 0.03 0.04
0.05 0.05 0.06 0.06 0.06 0.08 0.11 0.09 0.09 0.10 0.10 0.10 0.09 0.08 0.08 0.09 0.11 0.14 0.17 0.16 0.16 0.16 0.16 0.14 0.10 0.08 0.06 0.06 0.06 0.05 0.02 0.02 0.03 0.03 0.03 0.04 0.03 0.03 0.03 0.03 0.02 0.04 0.04
0.06 0.08 0.10 0.09 0.07 0.09 0.13 0.11 0.09 0.09 0.09 0.08 0.07 0.06 0.06 0.08 0.10 0.13 0.17 0.17 0.19 0.14 0.12 0.12 0.11 0.10 0.07 0.05 0.05 0.05 0.04 0.03 0.03 0.04 0.04 0.03 0.02 0.03 0.04 0.03 0.02 0.03 0.04
0.03 0.05 0.09 0.12 0.11 0.10 0.12 0.12 0.11 0.09 0.07 0.06 0.06 0.06 0.06 0.06 0.09 0.11 0.16 0.20 0.17 0.12 0.11 0.12 0.09 0.10 0.09 0.07 0.06 0.05 0.04 0.03 0.04 0.03 0.03 0.02 0.02 0.02 0.03 0.03 0.04 0.04 0.03
0.01 0.01 0.03 0.06 0.08 0.08 0.09 0.12 0.11 0.07 0.05 0.05 0.05 0.07 0.06 0.06 0.07 0.08 0.11 0.15 0.14 0.11 0.10 0.09 0.10 0.11 0.11 0.10 0.08 0.06 0.06 0.06 0.05 0.03 0.04 0.05 0.03 0.02 0.03 0.03 0.04 0.05 0.03
0.01 0.01 0.01 0.02 0.04 0.05 0.08 0.10 0.08 0.05 0.03 0.05 0.06 0.06 0.06 0.05 0.09 0.11 0.12 0.13 0.14 0.12 0.15 0.14 0.11 0.12 0.10 0.10 0.13 0.11 0.08 0.07 0.04 0.05 0.05 0.05 0.04 0.02 0.02 0.02 0.02 0.04 0.05
0.01 0.00 0.00 0.00 0.01 0.02 0.06 0.09 0.08 0.06 0.06 0.08 0.07 0.08 0.08 0.09 0.13 0.18 0.16 0.14 0.13 0.13 0.15 0.18 0.14 0.14 0.13 0.11 0.11 0.08 0.07 0.07 0.05 0.04 0.04 0.05 0.06 0.05 0.04 0.03 0.02 0.03 0.03
0.00 0.01 0.01 0.01 0.01 0.01 0.04 0.08 0.07 0.07 0.09 0.09 0.09 0.08 0.07 0.09 0.13 0.15 0.12 0.11 0.11 0.14 0.15 0.14 0.16 0.19 0.15 0.11 0.08 0.08 0.07 0.07 0.07 0.06 0.06 0.06 0.06 0.06 0.05 0.04 0.04 0.03 0.03
0.00 0.01 0.00 0.01 0.02 0.02 0.05 0.08 0.08 0.08 0.08 0.08 0.07 0.09 0.09 0.09 0.10 0.11 0.09 0.09 0.08 0.10 0.11 0.10 0.14 0.15 0.11 0.09 0.05 0.08 0.08 0.06 0.07 0.06 0.05 0.06 0.07 0.05 0.06 0.07 0.06 0.05 0.04
0.00 0.00 0.00 0.01 0.02 0.03 0.05 0.07 0.08 0.09 0.08 0.07 0.07 0.07 0.06 0.07 0.08 0.10 0.08 0.08 0.08 0.10 0.10 0.08 0.11 0.12 0.10 0.08 0.08 0.09 0.08 0.07 0.05 0.05 0.04 0.07 0.07 0.06 0.08 0.10 0.10 0.08 0.07
0.00 0.00 0.00 0.01 0.02 0.02 0.03 0.04 0.06 0.06 0.06 0.07 0.06 0.07 0.04 0.04 0.05 0.06 0.06 0.06 0.07 0.08 0.07 0.06 0.09 0.11 0.09 0.08 0.09 0.10 0.09 0.10 0.06 0.03 0.04 0.05 0.06 0.06 0.05 0.06 0.07 0.09 0.09
0.00 0.00 0.01 0.01 0.02 0.03 0.03 0.03 0.04 0.05 0.05 0.06 0.05 0.04 0.03 0.02 0.02 0.04 0.05 0.05 0.05 0.04 0.05 0.05 0.07 0.09 0.09 0.08 0.07 0.10 0.12 0.11 0.08 0.05 0.04 0.03 0.03 0.04 0.04 0.04 0.04 0.04 0.06
0.00 0.00 0.01 0.01 0.02 0.02 0.02 0.03 0.03 0.05 0.05 0.05 0.04 0.04 0.02 0.01 0.01 0.02 0.04 0.06 0.06 0.06 0.07 0.04 0.06 0.07 0.07 0.07 0.07 0.06 0.07 0.09 0.10 0.08 0.06 0.04 0.03 0.03 0.03 0.02 0.02 0.04 0.05
0.00 0.00 0.01 0.01 0.02 0.01 0.02 0.02 0.03 0.05 0.04 0.03 0.03 0.03 0.03 0.02 0.02 0.01 0.03 0.05 0.06 0.05 0.05 0.04 0.04 0.05 0.06 0.07 0.07 0.07 0.06 0.06 0.07 0.08 0.07 0.07 0.06 0.04 0.02 0.02 0.02 0.03 0.06
0.00 0.00 0.00 0.01 0.01 0.01 0.01 0.01 0.02 0.04 0.04 0.03 0.03 0.03 0.02 0.03 0.03 0.02 0.03 0.04 0.03 0.04 0.04 0.03 0.03 0.04 0.05 0.05 0.06 0.06 0.06 0.06 0.07 0.07 0.07 0.06 0.06 0.04 0.02 0.02 0.02 0.02 0.03
MSLP
1001.76 999.76 997.91 996.42 995.44 995.04 995.22 995.89 996.93 998.20 999.57 1000.92 1002.20 1003.37 1004.43 1005.39 1006.26 1007.07 1007.81 1008.50 1009.14 1009.73 1010.28 1010.78 1011.25 1011.69 1012.10 1012.46 1012.79 1013.08 1013.32 1013.54 1013.73 1013.93 1014.14 1014.38 1014.63 1014.90 1015.16 1015.40 1015.60 1015.78 1015.92
1002.31 1000.36 998.60 997.24 996.40 996.13 996.40 997.11 998.12 999.32 1000.57 1001.80 1002.95 1004.01 1004.99 1005.90 1006.76 1007.56 1008.31 1009.02 1009.66 1010.25 1010.78 1011.27 1011.72 1012.13 1012.51 1012.84 1013.14 1013.40 1013.63 1013.83 1014.03 1014.25 1014.48 1014.73 1015.01 1015.29 1015.55 1015.78 1015.97 1016.13 1016.26
1002.84 1000.98 999.36 998.15 997.47 997.34 997.69 998.42 999.40 1000.50 1001.63 1002.71 1003.72 1004.65 1005.53 1006.38 1007.19 1007.97 1008.72 1009.42 1010.06 1010.66 1011.19 1011.67 1012.11 1012.50 1012.85 1013.17 1013.44 1013.68 1013.89 1014.10 1014.31 1014.55 1014.81 1015.09 1015.39 1015.67 1015.93 1016.15 1016.34 1016.48 1016.61
1003.35 1001.63 1000.16 999.12 998.59 998.57 998.98 999.71 1000.64 1001.64 1002.63 1003.57 1004.44 1005.26 1006.05 1006.82 1007.58 1008.34 1009.07 1009.77 1010.42 1011.01 1011.55 1012.03 1012.46 1012.84 1013.18 1013.47 1013.72 1013.94 1014.14 1014.35 1014.58 1014.85 1015.14 1015.45 1015.76 1016.06 1016.32 1016.53 1016.70 1016.84 1016.96
1003.91 1002.35 1001.05 1000.17 999.76 999.82 1000.25 1000.96 1001.81 1002.70 1003.57 1004.38 1005.13 1005.85 1006.56 1007.28 1008.01 1008.74 1009.46 1010.15 1010.80 1011.40 1011.94 1012.42 1012.85 1013.22 1013.53 1013.79 1014.01 1014.21 1014.40 1014.61 1014.85 1015.13 1015.45 1015.79 1016.12 1016.43 1016.69 1016.90 1017.06 1017.19 1017.32
1004.56 1003.18 1002.06 1001.32 1001.01 1001.11 1001.54 1002.18 1002.93 1003.71 1004.46 1005.17 1005.84 1006.49 1007.15 1007.84 1008.54 1009.26 1009.96 1010.64 1011.28 1011.87 1012.41 1012.89 1013.30 1013.65 1013.93 1014.16 1014.34 1014.50 1014.66 1014.86 1015.11 1015.41 1015.75 1016.12 1016.47 1016.79 1017.05 1017.26 1017.41 1017.54 1017.66
1005.35 1004.17 1003.22 1002.62 1002.38 1002.49 1002.87 1003.42 1004.07 1004.73 1005.37 1006.00 1006.61 1007.23 1007.87 1008.54 1009.23 1009.93 1010.61 1011.27 1011.89 1012.46 1012.98 1013.43 1013.82 1014.14 1014.38 1014.56 1014.69 1014.80 1014.93 1015.11 1015.36 1015.67 1016.04 1016.43 1016.81 1017.14 1017.40 1017.60 1017.74 1017.86 1017.99
1006.25 1005.29 1004.53 1004.05 1003.88 1003.97 1004.28 1004.73 1005.25 1005.80 1006.35 1006.91 1007.48 1008.09 1008.73 1009.39 1010.07 1010.75 1011.40 1012.02 1012.59 1013.12 1013.60 1014.02 1014.37 1014.64 1014.83 1014.95 1015.03 1015.09 1015.19 1015.34 1015.58 1015.91 1016.30 1016.72 1017.12 1017.46 1017.73 1017.92 1018.05 1018.15 1018.27
1007.21 1006.49 1005.92 1005.57 1005.45 1005.52 1005.76 1006.09 1006.49 1006.93 1007.40 1007.90 1008.45 1009.05 1009.69 1010.35 1011.01 1011.65 1012.24 1012.80 1013.31 1013.77 1014.19 1014.55 1014.85 1015.06 1015.20 1015.27 1015.30 1015.32 1015.38 1015.52 1015.76 1016.10 1016.52 1016.97 1017.41 1017.77 1018.05 1018.22 1018.33 1018.41 1018.50
1008.11 1007.64 1007.27 1007.06 1006.99 1007.06 1007.22 1007.45 1007.73 1008.06 1008.45 1008.91 1009.44 1010.03 1010.66 1011.31 1011.93 1012.51 1013.04 1013.51 1013.93 1014.32 1014.66 1014.95 1015.19 1015.36 1015.45 1015.47 1015.45 1015.44 1015.48 1015.61 1015.86 1016.23 1016.69 1017.19 1017.66 1018.05 1018.34 1018.51 1018.59 1018.63 1018.68
1008.86 1008.64 1008.48 1008.40 1008.40 1008.46 1008.56 1008.70 1008.88 1009.12 1009.44 1009.85 1010.35 1010.93 1011.54 1012.16 1012.73 1013.25 1013.69 1014.07 1014.39 1014.68 1014.94 1015.17 1015.36 1015.48 1015.53 1015.52 1015.48 1015.45 1015.48 1015.62 1015.89 1016.29 1016.80 1017.34 1017.86 1018.29 1018.59 1018.76 1018.83 1018.83 1018.84
1009.40 1009.40 1009.43 1009.49 1009.55 1009.62 1009.68 1009.75 1009.85 1010.01 1010.26 1010.63 1011.10 1011.66 1012.24 1012.82 1013.34 1013.78 1014.13 1014.42 1014.65 1014.86 1015.04 1015.22 1015.35 1015.44 1015.47 1015.45 1015.40 1015.36 1015.40 1015.55 1015.84 1016.28 1016.83 1017.42 1017.99 1018.46 1018.79 1018.98 1019.04 1019.01 1018.97
1009.70 1009.89 1010.08 1010.25 1010.39 1010.47 1010.51 1010.53 1010.56 1010.66 1010.87 1011.20 1011.64 1012.16 1012.71 1013.25 1013.71 1014.09 1014.37 1014.57 1014.73 1014.87 1015.01 1015.13 1015.24 1015.32 1015.34 1015.31 1015.26 1015.23 1015.27 1015.44 1015.74 1016.21 1016.78 1017.42 1018.03 1018.54 1018.92 1019.13 1019.19 1019.16 1019.08
1009.79 1010.11 1010.42 1010.69 1010.88 1010.99 1011.02 1011.02 1011.02 1011.08 1011.25 1011.54 1011.96 1012.45 1012.97 1013.46 1013.88 1014.21 1014.44 1014.59 1014.70 1014.80 1014.91 1015.02 1015.12 1015.19 1015.21 1015.19 1015.15 1015.12 1015.16 1015.32 1015.62 1016.09 1016.67 1017.32 1017.96 1018.51 1018.93 1019.18 1019.27 1019.25 1019.17
1009.72 1010.13 1010.51 1010.84 1011.08 1011.22 1011.27 1011.26 1011.25 1011.30 1011.45 1011.72 1012.10 1012.57 1013.06 1013.52 1013.91 1014.21 1014.42 1014.55 1014.65 1014.74 1014.84 1014.95 1015.06 1015.14 1015.18 1015.17 1015.13 1015.09 1015.12 1015.25 1015.52 1015.95 1016.50 1017.13 1017.77 1018.34 1018.79 1019.09 1019.23 1019.25 1019.19
1009.59 1010.02 1010.44 1010.80 1011.08 1011.25 1011.32 1011.34 1011.35 1011.40 1011.54 1011.80 1012.16 1012.60 1013.06 1013.50 1013.87 1014.17 1014.37 1014.52 1014.63 1014.74 1014.86 1015.00 1015.13 1015.23 1015.29 1015.29 1015.25 1015.19 1015.18 1015.26 1015.46 1015.82 1016.29 1016.86 1017.46 1018.02 1018.49 1018.83 1019.03 1019.11 1019.11
1009.46 1009.88 1010.29 1010.66 1010.96 1011.16 1011.28 1011.34 1011.39 1011.47 1011.63 1011.88 1012.22 1012.62 1013.05 1013.47 1013.83 1014.13 1014.35 1014.53 1014.68 1014.82 1014.99 1015.16 1015.32 1015.46 1015.53 1015.54 1015.50 1015.43 1015.37 1015.37 1015.48 1015.72 1016.08 1016.54 1017.06 1017.57 1018.02 1018.39 1018.64 1018.80 1018.88
1009.37 1009.75 1010.14 1010.51 1010.82 1011.06 1011.24 1011.36 1011.46 1011.59 1011.76 1012.01 1012.32 1012.69 1013.08 1013.46 1013.81 1014.11 1014.35 1014.56 1014.76 1014.96 1015.17 1015.39 1015.59 1015.76 1015.86 1015.89 1015.85 1015.76 1015.65 1015.58 1015.58 1015.68 1015.90 1016.21 1016.60 1017.02 1017.42 1017.78 1018.08 1018.31 1018.47
1009.34 1009.67 1010.03 1010.38 1010.70 1010.99 1011.22 1011.41 1011.59 1011.76 1011.96 1012.20 1012.48 1012.80 1013.14 1013.48 1013.80 1014.09 1014.35 1014.59 1014.83 1015.08 1015.34 1015.60 1015.85 1016.06 1016.20 1016.26 1016.23 1016.14 1016.00 1015.85 1015.75 1015.71 1015.77 1015.91 1016.14 1016.43 1016.75 1017.07 1017.37 1017.65 1017.89
1009.31 1009.61 1009.93 1010.27 1010.61 1010.94 1011.24 1011.50 1011.74 1011.97 1012.19 1012.42 1012.66 1012.93 1013.20 1013.48 1013.76 1014.03 1014.30 1014.57 1014.84 1015.13 1015.43 1015.74 1016.03 1016.28 1016.46 1016.56 1016.57 1016.49 1016.35 1016.16 1015.97 1015.81 1015.71 1015.69 1015.74 1015.87 1016.07 1016.31 1016.58 1016.87 1017.16
1009.25 1009.53 1009.83 1010.16 1010.52 1010.89 1011.25 1011.58 1011.89 1012.16 1012.40 1012.61 1012.82 1013.02 1013.22 1013.44 1013.67 1013.91 1014.17 1014.45 1014.75 1015.07 1015.40 1015.74 1016.06 1016.35 1016.58 1016.73 1016.80 1016.76 1016.64 1016.45 1016.22 1015.97 1015.74 1015.56 1015.44 1015.41 1015.45 1015.58 1015.77 1016.03 1016.33
1009.09 1009.38 1009.68 1010.01 1010.38 1010.79 1011.20 1011.60 1011.96 1012.27 1012.52 1012.72 1012.88 1013.02 1013.16 1013.31 1013.49 1013.71 1013.96 1014.24 1014.55 1014.88 1015.24 1015.59 1015.94 1016.26 1016.53 1016.74 1016.86 1016.89 1016.83 1016.67 1016.44 1016.15 1015.84 1015.53 1015.27 1015.07 1014.95 1014.94 1015.02 1015.21 1015.47
1008.78 1009.10 1009.42 1009.77 1010.16 1010.59 1011.05 1011.49 1011.90 1012.24 1012.50 1012.68 1012.81 1012.90 1012.99 1013.09 1013.24 1013.43 1013.67 1013.95 1014.27 1014.61 1014.97 1015.32 1015.67 1016.01 1016.31 1016.56 1016.74 1016.85 1016.86 1016.77 1016.58 1016.30 1015.96 1015.58 1015.20 1014.87 1014.60 1014.43 1014.38 1014.45 1014.63
1008.28 1008.66 1009.02 1009.40 1009.82 1010.28 1010.76 1011.24 1011.68 1012.04 1012.31 1012.49 1012.59 1012.66 1012.71 1012.79 1012.91 1013.09 1013.34 1013.62 1013.95 1014.29 1014.64 1014.98 1015.31 1015.64 1015.94 1016.21 1016.45 1016.62 1016.72 1016.72 1016.60 1016.38 1016.05 1015.65 1015.21 1014.77 1014.38 1014.07 1013.88 1013.81 1013.88
1007.60 1008.06 1008.47 1008.89 1009.34 1009.83 1010.35 1010.85 1011.31 1011.69 1011.97 1012.15 1012.25 1012.30 1012.34 1012.41 1012.54 1012.73 1012.99 1013.29 1013.62 1013.96 1014.29 1014.60 1014.90 1015.19 1015.47 1015.74 1016.00 1016.22 1016.39 1016.48 1016.46 1016.32 1016.05 1015.68 1015.22 1014.73 1014.25 1013.83 1013.50 1013.29 1013.23
1006.74 1007.29 1007.78 1008.26 1008.75 1009.27 1009.82 1010.34 1010.83 1011.22 1011.52 1011.70 1011.81 1011.86 1011.91 1012.00 1012.14 1012.36 1012.64 1012.97 1013.31 1013.64 1013.95 1014.22 1014.47 1014.70 1014.93 1015.17 1015.43 1015.68 1015.90 1016.07 1016.14 1016.10 1015.92 1015.61 1015.19 1014.69 1014.16 1013.66 1013.22 1012.89 1012.69
Thickness
5791 5792 5791 5791 5791 5792 5792 5792 5791 5790 5789 5788 5788 5787 5786 5785 5784 5783 5782 5782 5781 5780 5778 5776 5775 5773 5772 5770 5769 5767 5766 5765 5764 5762 5761 5759 5758 5757 5756 5755 5754 5752 5751
5793 5792 5791 5791 5790 5790 5790 5790 5789 5788 5788 5786 5786 5785 5784 5783 5782 5781 5781 5780 5779 5778 5776 5775 5773 5772 5771 5769 5767 5766 5765 5764 5763 5761 5760 5758 5757 5756 5755 5754 5753 5751 5750
5796 5793 5791 5790 5790 5789 5789 5788 5788 5787 5786 5785 5784 5783 5782 5782 5781 5780 5779 5778 5777 5776 5774 5773 5772 5771 5769 5767 5766 5765 5764 5763 5762 5760 5759 5758 5755 5754 5753 5752 5751 5749 5748
5798 5796 5792 5790 5789 5788 5788 5787 5786 5786 5785 5784 5783 5781 5781 5780 5779 5779 5778 5777 5776 5774 5773 5772 5770 5769 5768 5766 5765 5764 5763 5762 5761 5760 5760 5758 5756 5753 5752 5751 5749 5748 5747
5798 5795 5791 5790 5789 5788 5787 5786 5785 5785 5783 5782 5781 5780 5779 5778 5778 5777 5776 5775 5774 5773 5772 5771 5769 5768 5767 5765 5764 5763 5762 5761 5760 5761 5760 5758 5756 5753 5752 5750 5748 5747 5746
5798 5795 5791 5790 5789 5788 5787 5785 5784 5784 5783 5781 5780 5779 5778 5777 5777 5776 5775 5774 5773 5772 5771 5770 5768 5767 5766 5765 5764 5763 5762 5761 5761 5761 5760 5758 5755 5753 5751 5749 5748 5746 5745
5797 5795 5793 5790 5789 5787 5786 5785 5784 5783 5782 5781 5780 5778 5777 5777 5776 5775 5774 5773 5772 5771 5770 5768 5767 5766 5765 5764 5763 5762 5761 5761 5761 5762 5761 5758 5755 5753 5751 5749 5748 5746 5744
5799 5795 5792 5789 5788 5786 5786 5784 5783 5782 5781 5780 5779 5778 5777 5776 5775 5774 5773 5771 5771 5770 5768 5767 5766 5765 5764 5763 5762 5762 5762 5761 5763 5763 5761 5758 5755 5753 5751 5749 5748 5746 5744
5801 5796 5792 5789 5787 5786 5785 5784 5782 5781 5780 5779 5778 5777 5777 5776 5775 5773 5772 5771 5769 5769 5767 5766 5765 5764 5764 5763 5762 5762 5763 5762 5763 5763 5762 5759 5756 5754 5752 5750 5748 5746 5744
5801 5797 5794 5790 5788 5787 5785 5783 5781 5780 5779 5778 5777 5776 5776 5775 5774 5772 5771 5770 5768 5768 5767 5766 5765 5764 5763 5763 5762 5763 5763 5762 5763 5764 5762 5759 5756 5754 5752 5750 5748 5746 5745
5799 5797 5796 5792 5790 5789 5787 5783 5781 5779 5778 5777 5776 5776 5775 5775 5774 5773 5771 5770 5769 5767 5767 5766 5765 5763 5762 5762 5762 5762 5762 5763 5764 5763 5762 5759 5756 5754 5752 5750 5748 5746 5745
5795 5796 5796 5794 5792 5790 5789 5784 5783 5781 5778 5777 5777 5776 5775 5775 5775 5774 5772 5771 5769 5767 5766 5765 5765 5763 5762 5763 5763 5762 5763 5764 5764 5763 5760 5758 5756 5754 5752 5750 5748 5746 5744
5797 5797 5796 5794 5792 5791 5789 5786 5785 5782 5780 5779 5778 5777 5776 5775 5774 5773 5772 5770 5769 5768 5766 5765 5764 5764 5764 5765 5765 5764 5765 5765 5765 5763 5760 5758 5755 5753 5751 5749 5748 5746 5745
5798 5796 5796 5794 5792 5790 5789 5787 5785 5783 5781 5780 5778 5777 5776 5775 5773 5773 5772 5770 5769 5769 5767 5766 5766 5766 5766 5767 5767 5766 5766 5765 5764 5762 5759 5758 5756 5754 5752 5750 5748 5747 5745
5799 5797 5795 5794 5791 5790 5788 5787 5786 5784 5782 5781 5779 5777 5776 5774 5773 5772 5771 5770 5769 5769 5768 5767 5766 5766 5766 5767 5767 5767 5767 5766 5764 5763 5760 5758 5756 5754 5753 5751 5749 5747 5745
5801 5798 5797 5795 5792 5790 5788 5787 5786 5785 5782 5781 5779 5777 5776 5774 5772 5771 5770 5770 5769 5769 5768 5767 5766 5765 5765 5765 5765 5766 5766 5766 5765 5763 5760 5758 5756 5755 5753 5752 5750 5748 5746
5804 5802 5798 5796 5793 5791 5789 5788 5787 5785 5783 5781 5779 5777 5775 5774 5771 5770 5770 5769 5769 5768 5767 5766 5766 5765 5764 5764 5764 5764 5765 5765 5764 5763 5760 5758 5756 5755 5753 5752 5750 5749 5747
5808 5803 5801 5800 5795 5791 5789 5788 5787 5786 5784 5781 5779 5777 5775 5773 5771 5770 5769 5768 5768 5768 5767 5765 5765 5763 5762 5762 5761 5763 5764 5764 5763 5762 5761 5759 5757 5756 5754 5752 5751 5749 5748
5810 5805 5801 5799 5796 5793 5791 5789 5787 5786 5784 5782 5780 5777 5775 5773 5772 5770 5769 5769 5769 5769 5768 5767 5764 5762 5760 5760 5761 5762 5763 5763 5763 5763 5761 5760 5759 5757 5756 5754 5752 5750 5749
5812 5807 5803 5800 5797 5795 5792 5789 5787 5786 5785 5783 5781 5778 5776 5774 5773 5771 5770 5769 5769 5768 5767 5765 5763 5762 5761 5761 5762 5762 5763 5763 5763 5762 5761 5761 5760 5758 5757 5755 5753 5751 5750
5814 5808 5804 5800 5797 5795 5791 5787 5784 5783 5783 5783 5781 5779 5777 5775 5774 5772 5771 5770 5769 5767 5766 5765 5763 5761 5761 5762 5758 5756 5759 5763 5762 5761 5761 5760 5760 5759 5757 5756 5754 5753 5751
5815 5811 5807 5803 5800 5797 5794 5791 5789 5787 5785 5784 5783 5780 5778 5777 5775 5774 5771 5770 5769 5767 5766 5765 5763 5761 5761 5763 5758 5752 5748 5751 5757 5762 5760 5759 5758 5758 5757 5756 5755 5754 5752
5819 5814 5812 5807 5803 5800 5798 5795 5792 5788 5786 5783 5781 5780 5780 5778 5777 5775 5773 5771 5770 5769 5766 5766 5764 5762 5759 5762 5763 5756 5747 5743 5748 5755 5757 5758 5757 5756 5756 5756 5755 5754 5753
5824 5820 5815 5811 5807 5804 5801 5796 5791 5785 5782 5783 5783 5782 5781 5780 5778 5776 5774 5772 5770 5769 5767 5766 5766 5765 5762 5759 5761 5762 5759 5755 5747 5743 5750 5754 5755 5754 5754 5755 5755 5754 5753
5830 5825 5819 5813 5809 5806 5803 5799 5794 5790 5788 5787 5786 5783 5782 5781 5780 5778 5776 5773 5771 5769 5768 5767 5766 5765 5764 5761 5759 5760 5759 5758 5755 5746 5742 5746 5750 5752 5753 5753 5753 5752 5752
5834 5829 5823 5815 5811 5808 5804 5801 5797 5792 5790 5787 5784 5782 5781 5781 5780 5779 5777 5774 5772 5770 5768 5767 5766 5765 5764 5762 5761 5760 5756 5754 5752 5749 5744 5743 5744 5748 5751 5752 5752 5751 5750